ROMMA est une association bénévole à but non lucratif. Votre soutien est indispensable : ADHERER à ROMMA ou FAIRE un DON

Granges-lès-Beaumont - (26, Drôme)

Drôme des Collines (155 m)   Longitude: 04°58'E   Latitude: 45°03'N Station partenaire n°123
 

Détail journalier du     <<     >>

Température Precipitation Humidité Pression Vent Dir Rafale Dir. rafale Ensol.
Heure (°C) (mm) (%) (hPa) (km/h) (km/h) (min)
01:00 11.90.29110071NE6NE0
02:00 11.8091100700---0
03:00 11.6091100705N0
04:00 11.409110061N8N0
05:00 11.609110066N16N0
06:00 11.808910078N16N0
07:00 12.008810076N13N0
08:00 12.208710076N13N0
09:00 12.808710088N21N0
10:00 13.3083100911NNO26N0
11:00 13.9080100910NNO23NO0
12:00 15.2077100914NNO29NO0
13:00 16.0073101017NNO35NO0
14:00 16.5071101013NNO29NNO0
15:00 16.6073101014N29N0
16:00 17.3069101013N26NNE0
17:00 19.4061101016NNO29NE20
18:00 16.3075101013N26NNO10
19:00 16.007710107NNE15NNE0
20:00 14.6283101110ENE18E0
21:00 13.31.48710127N16N0
22:00 12.80.28810125NE11NNE0
23:00 12.708910123NNO8NE0
minuit 12.509010131NNO5NNO0

Graphique du 20-05-2019

 

Serveur OMMA